FW0051 Weather Reports


Display with metric or nautical units.
time (UTC)temp
F
wind
direction
speed
MPH
gust
MPH
rain 1hr
in
rain 24hr
in
rain mn
in
humidity
%
barometer
mb
20260506210017 38 178 15.0 24.0 0.00 0.20 0.20 99 1012.5
20260506204520 40 179 15.0 25.0 0.00 0.20 0.20 99 1012.9
20260506203016 40 171 17.0 27.0 0.00 0.20 0.20 99 1012.8
20260506201516 41 165 17.0 28.0 0.00 0.20 0.20 99 1012.7
20260506200017 41 156 17.0 28.0 0.00 0.20 0.20 99 1012.5
20260506194516 41 151 18.0 26.0 0.00 0.20 0.20 99 1012.3
20260506191516 41 154 17.0 25.0 0.00 0.21 0.20 99 1012.1
20260506190018 41 153 15.0 23.0 0.00 0.21 0.20 99 1012.1
20260506184516 41 158 18.0 24.0 0.02 0.21 0.20 99 1012.0
20260506183015 41 149 14.0 22.0 0.02 0.21 0.20 99 1012.0
20260506181516 41 160 19.0 30.0 0.02 0.22 0.20 99 1011.9
20260506180016 41 127 21.0 31.0 0.02 0.22 0.20 99 1011.7
20260506174515 41 105 8.0 17.0 0.00 0.20 0.19 99 1011.1
20260506173016 41 163 15.0 29.0 0.00 0.20 0.19 99 1011.5
20260506171515 42 150 15.0 23.0 0.00 0.20 0.19 99 1011.4
20260506163017 42 169 14.0 21.0 0.00 0.21 0.19 99 1011.1
20260506161516 42 181 11.0 21.0 0.00 0.21 0.19 99 1011.1
20260506160015 42 172 17.0 33.0 0.00 0.21 0.19 99 1011.1
20260506151515 42 190 16.0 26.0 0.00 0.23 0.19 99 1011.2
20260506150015 42 175 16.0 27.0 0.00 0.24 0.19 99 1011.2
20260506143015 42 187 10.0 18.0 0.00 0.25 0.19 99 1011.3
20260506140015 41 162 17.0 31.0 0.03 0.26 0.19 99 1011.5
20260506134513 41 175 17.0 25.0 0.03 0.26 0.19 99 1011.7
20260506133014 40 176 18.0 28.0 0.03 0.26 0.19 99 1011.6
20260506131514 38 215 16.0 25.0 0.03 0.25 0.18 99 1011.8
20260506121518 41 123 26.0 39.0 0.00 0.23 0.15 99 1011.2
20260506120020 42 123 28.0 33.0 0.00 0.24 0.15 99 1011.0
20260506114519 42 122 26.0 35.0 0.00 0.24 0.15 99 1011.0
20260506113018 42 120 26.0 35.0 0.00 0.24 0.15 99 1010.9
20260506111519 42 118 25.0 33.0 0.00 0.24 0.15 99 1011.2
20260506110019 42 116 22.0 28.0 0.01 0.25 0.15 99 1011.5
20260506104518 42 127 19.0 26.0 0.01 0.25 0.15 99 1011.8
20260506103018 42 132 18.0 25.0 0.01 0.26 0.15 99 1011.9
20260506101517 41 147 14.0 22.0 0.01 0.28 0.15 99 1012.3
20260506100019 41 123 19.0 25.0 0.00 0.28 0.14 99 1012.3
20260506093019 41 120 18.0 24.0 0.01 0.34 0.14 99 1011.7
20260506091517 40 115 25.0 31.0 0.01 0.39 0.14 99 1011.5
20260506090018 41 109 22.0 28.0 0.01 0.41 0.14 99 1011.4
20260506084517 41 104 21.0 28.0 0.00 0.41 0.13 99 1011.4
20260506083017 41 111 18.0 26.0 0.00 0.43 0.13 99 1011.5
20260506081518 41 101 18.0 25.0 0.00 0.44 0.13 99 1011.3
20260506073017 40 104 24.0 29.0 0.01 0.45 0.13 99 1011.2
20260506071516 40 104 22.0 28.0 0.03 0.45 0.13 99 1011.1
20260506061516 40 90 16.0 23.0 0.08 0.43 0.10 99 1011.6
20260506044515 39 109 7.0 9.0 0.00 0.33 0.01 99 1011.7
20260506043015 39 120 8.0 10.0 0.00 0.33 0.01 99 1011.8
20260506041514 39 112 4.0 7.0 0.00 0.33 0.01 99 1011.6
20260506034514 39 104 1.0 4.0 0.00 0.33 0.01 99 1011.7
20260506033015 39 127 3.0 7.0 0.00 0.33 0.01 99 1012.2
20260506031514 39 144 6.0 9.0 0.00 0.33 0.01 99 1012.5
20260506021514 40 166 10.0 14.0 0.00 0.33 0.01 99 1012.9
20260506014513 40 179 7.0 16.0 0.00 0.33 0.01 99 1013.0
20260506013013 40 182 3.0 8.0 0.00 0.33 0.01 99 1013.0
20260506011513 40 193 5.0 11.0 0.00 0.33 0.01 99 1013.2
20260506004519 40 190 9.0 13.0 0.00 0.33 0.01 99 1013.5
20260506003019 40 188 8.0 12.0 0.00 0.33 0.01 99 1013.5
20260506001519 40 186 9.0 14.0 0.00 0.33 0.01 99 1013.7
20260505234518 40 194 7.0 9.0 0.00 0.33 0.01 99 1013.8
20260505233019 40 190 9.0 12.0 0.00 0.33 0.01 99 1013.8
20260505231518 40 188 7.0 12.0 0.00 0.33 0.01 99 1013.9
20260505230018 40 202 8.0 14.0 0.01 0.33 0.01 99 1014.0
20260505224518 40 197 8.0 15.0 0.01 0.33 0.01 99 1013.8
20260505223018 40 194 10.0 14.0 0.01 0.33 0.01 99 1014.0
20260505221517 41 196 12.0 18.0 0.01 0.33 0.01 99 1014.2
20260505214518 41 203 11.0 17.0 0.00 0.32 0.32 99 1014.6
20260505213018 41 204 9.0 15.0 0.00 0.32 0.32 99 1014.7
20260505211518 41 205 10.0 16.0 0.00 0.32 0.32 99 1014.8